Location: B?dargowo
(53.3916°N, 14.4413°E)
Time: 08:55:12
(UTC+00:00)

MINOTAUR 4 R/B - Pass Details

Date: 05 February 2023
Orbit: 448 x 453 km, 98.0° (Epoch: 19 March)

Event Time Altitude Azimuth Distance (km) Brightness Sun altitude
Exits shadow 16:11:17 - 80° (E) 2,104 6.6 -3.4°
Enters shadow 17:29:50 -26° 9° (N) 6,525 9.7 -14.7°
Maximum altitude 17:45:07 43° 100° (E) 644 4.2 -16.9°
